Theta_e
337 337 337 336 333 332 330 328 327 325 324 322 320 319 318 318 318 316 315 314 313 312
334 334 331 328 328 327 326 324 323 321 320 319 317 317 316 315 313 312 311 311 311 310
329 330 327 321 319 319 319 319 318 317 315 315 314 314 312 311 312 312 311 310 310 309
327 325 323 323 325 324 323 321 317 317 317 316 315 314 314 313 309 306 305 305 305 308
326 323 321 321 321 320 318 318 318 318 318 319 318 315 312 310 308 305 304 304 304 303
322 322 321 319 314 311 310 311 310 311 311 311 314 315 314 309 308 306 305 304 303 302
319 319 316 313 311 308 308 308 306 306 307 310 310 310 311 309 307 305 304 303 302 304
317 315 312 309 307 307 307 308 308 306 306 306 309 309 307 308 307 304 301 300 300 303
314 314 313 311 309 308 308 307 304 301 301 301 306 306 309 306 302 301 299 297 297 300
315 314 312 310 308 307 306 302 300 299 299 299 300 303 305 307 302 300 299 297 297 299
314 313 312 310 307 304 303 301 301 301 297 296 298 301 303 304 301 301 300 299 297 296
315 314 314 314 312 307 303 302 302 301 298 296 296 300 302 302 301 300 298 299 299 297
314 315 316 314 310 309 306 304 303 301 300 303 296 299 300 303 303 300 300 296 296 301
317 315 310 308 306 305 303 302 301 302 303 303 299 297 298 299 299 301 300 301 299 300
Wind_Speed
8 6 7 7 6 5 6 6 7 8 9 9 9 8 8 7 6 6 5 7 6 4
10 10 9 9 8 5 6 7 7 9 10 9 9 8 7 6 7 7 5 6 6 4
9 9 8 9 10 9 9 9 9 9 8 8 8 8 7 5 6 8 5 5 8 7
8 7 7 6 8 7 7 7 6 6 6 6 7 6 7 7 7 9 8 7 7 9
9 8 8 7 7 7 6 7 6 7 7 6 7 7 7 8 7 9 10 8 10 8
8 9 9 9 8 7 7 8 8 9 9 8 7 7 7 7 8 8 7 7 7 6
8 8 8 8 8 7 7 8 8 7 7 7 7 7 6 7 8 7 6 6 6 6
8 9 9 9 7 7 8 7 7 8 9 7 7 5 7 7 6 7 6 6 6 6
8 10 8 7 7 7 7 9 8 7 7 8 5 11 11 8 6 6 6 6 6 6
8 8 7 7 6 6 6 7 6 6 7 7 6 8 10 8 5 6 5 6 6 6
8 7 6 6 6 6 5 6 4 6 5 6 5 6 8 9 5 4 4 5 4 4
6 7 6 6 7 5 5 3 2 3 5 5 5 9 8 8 5 3 3 3 4 4
6 5 4 5 4 2 3 4 3 4 4 6 5 9 6 6 2 3 0 2 2 6
5 6 6 4 2 4 4 4 3 2 1 1 3 4 6 5 2 3 2 3 4 3
Wind_Direction
61 75 77 68 69 61 60 51 54 63 68 71 70 64 64 66 64 58 54 50 42 37
66 66 75 72 72 68 83 81 69 73 74 63 63 61 56 59 56 57 42 42 44 46
70 78 81 91 87 82 81 79 72 69 68 64 61 62 65 58 49 60 35 34 48 33
72 68 76 75 80 83 84 80 79 78 78 83 82 72 74 68 60 63 48 30 39 51
85 81 80 68 62 61 55 47 47 51 54 50 69 71 70 69 65 66 57 40 48 33
79 82 79 72 63 58 62 61 54 60 57 51 59 71 69 72 75 69 59 49 49 39
76 77 79 71 63 60 60 65 62 55 57 56 67 70 80 84 78 72 60 53 51 42
103 93 85 78 73 74 74 65 53 61 58 51 60 66 76 85 79 78 61 40 34 32
96 94 93 94 85 75 78 86 77 61 65 65 50 54 64 77 77 65 56 43 25 19
105 102 105 102 95 90 82 74 67 62 61 58 53 46 79 77 80 76 59 52 43 39
111 101 94 100 101 104 103 100 85 74 62 63 29 21 109 98 88 76 69 63 55 68
119 123 137 141 144 133 115 108 96 109 82 78 23 356 147 120 133 100 89 67 24 21
126 126 110 107 121 123 129 122 111 86 76 73 44 10 40 145 126 147 219 21 359 331
127 128 122 120 99 102 98 99 99 116 63 98 87 38 53 72 109 187 269 285 296 313